[[{"header":{"parameterUnit":"m.s-1","parameterCategory":1,"la1":30.2991,"la2":30.254,"lo1":-89.0895,"lo2":-89.0444,"dy":0.0017,"dx":0.0017,"nx":28,"ny":28,"refTime":"2023-11-12T09:00:00:Z","depth":0,"parameterNumber":2,"parameterNumberName":"U-component_of_WINDS"},"data":[0,0,0,0,0,0,0,0,0,0,0,0,0,0,0,0,0,0,0,0,0,0,0,0,0,0,0,0,0,0,0,0,0,0,0,0,0,0,0,0,0,0,0,0,0,0,0,0,0,0,0,0,0,0,0,0,0,0,-3.7106,-3.7106,0,-3.7139,-3.714,-3.714,-3.7042,-3.7039,-3.7036,-3.7034,-3.7071,-3.7075,-3.7078,0,0,0,0,0,0,0,0,0,0,0,0,0,-3.696,-3.6963,-3.7106,-3.7106,-3.7106,-3.7139,-3.714,-3.714,-3.7043,-3.7039,-3.7036,-3.7032,-3.707,-3.7074,-3.7079,0,0,0,0,0,0,0,0,0,0,0,0,0,-3.7011,-3.6964,-3.7106,-3.7062,-3.7058,-3.7139,-3.714,-3.714,-3.7044,-3.7039,-3.7035,-3.703,-3.7068,-3.7074,-3.7079,-3.7205,0,0,-3.7097,-3.7099,0,0,0,0,0,0,0,0,-3.7009,-3.7017,-3.7068,-3.7065,-3.7061,-3.7082,-3.7102,-3.7162,-3.7045,-3.7049,-3.7033,-3.7028,-3.7078,-3.7083,-3.7099,-3.7207,-3.7208,-3.7097,-3.7101,-3.7103,-3.7105,0,0,0,0,0,0,0,-3.7005,-3.7015,-3.7119,-3.7069,-3.7065,-3.7041,-3.7044,-3.7113,-3.7089,-3.7049,-3.7042,-3.7047,-3.7076,-3.7094,-3.7099,-3.7209,-3.7097,-3.7102,-3.7106,-3.7108,-3.7422,-3.7427,0,0,0,0,0,0,-3.7007,-3.7012,-3.7118,-3.712,-3.7023,-3.7048,-3.705,-3.708,-3.7088,-3.7085,-3.7051,-3.7042,-3.7086,-3.7093,-3.71,-3.7249,-3.7103,-3.7108,-3.7112,-3.7417,-3.7423,-3.7429,0,0,0,0,0,0,-3.7004,-3.7017,-3.7117,-3.7064,-3.7075,-3.7055,-3.7089,-3.7083,-3.7101,-3.7089,-3.7085,-3.7074,-3.7083,-3.7092,-3.718,-3.7249,-3.7111,-3.7116,-3.7412,-3.7419,-3.7426,-3.7548,0,0,0,0,0,0,-3.7,-3.7017,-3.7064,-3.7066,-3.7078,-3.7195,-3.7093,-3.7087,-3.7111,-3.71,-3.711,-3.7107,-3.708,-3.7172,-3.7185,-3.7255,-3.7121,-3.7405,-3.7415,-3.7424,-3.7537,-3.7558,-3.7576,0,0,0,0,0,-3.6995,-3.7097,-3.7067,-3.708,-3.7137,-3.7199,-3.7206,-3.7173,-3.7117,-3.7164,-3.7157,-3.7107,-3.7239,-3.7181,-3.7196,-3.7268,-3.7401,-3.7412,-3.7423,-3.7529,-3.7554,-3.7576,0,0,0,0,0,0,-3.7104,-3.7096,-3.7063,-3.7168,-3.7185,-3.7182,-3.7242,-3.7201,-3.7235,-3.7223,-3.7181,-3.7184,-3.728,-3.7282,-3.7218,-3.7391,-3.731,-3.7325,-3.7386,-3.741,-3.7429,-3.7428,-3.7125,0,0,0,0,0,-3.714,-3.7191,-3.7181,-3.7275,-3.7285,-3.7262,-3.7288,-3.7261,-3.7277,-3.7284,-3.7283,-3.7301,-3.7347,-3.7378,-3.7419,-3.7536,-3.7538,-3.7593,-3.7613,-3.7629,-3.7643,-3.7706,-3.7731,-3.7465,-3.7465,-3.7465,0,0,-3.7215,-3.7217,-3.7252,-3.7297,-3.7307,-3.7362,-3.7269,-3.733,-3.7371,-3.7294,-3.7376,-3.7376,-3.7394,-3.7497,-3.7543,-3.7502,-3.7716,-3.7643,-3.7656,-3.7661,-3.772,-3.7746,-3.7768,-3.7473,-3.7471,-3.747,0,0,-3.7381,-3.7387,-3.7466,-3.7478,-3.7494,-3.7478,-3.7497,-3.7501,-3.7498,-3.758,-3.7523,-3.7571,-3.765,-3.7666,-3.7684,-3.7856,-3.7812,-3.787,-3.7973,-3.8036,-3.8057,-3.8075,-3.8138,-3.8161,-3.7884,-3.7884,-3.7884,0,-3.7473,-3.7552,-3.7512,-3.7578,-3.76,-3.7532,-3.7613,-3.7626,-3.7655,-3.7673,-3.7626,-3.7725,-3.7732,-3.7839,-3.7881,-3.7897,-3.7919,-3.787,-3.8057,-3.8075,-3.8091,-3.8151,-3.8175,-3.7891,-3.789,-3.789,-3.7889,0,-3.7666,-3.7722,-3.7784,-3.7813,-3.7842,-3.7915,-3.7888,-3.7922,-3.7892,-3.7881,-3.7966,-3.7972,-3.8014,-3.8037,-3.8008,-3.814,-3.8115,-3.8063,-3.7982,-3.8125,-3.818,-3.8203,-3.7902,-3.7899,-3.7897,-3.7895,0,0,-3.7902,-3.7908,-3.7932,-3.7945,-3.7958,-3.8001,-3.8071,-3.8111,-3.8142,-3.8164,-3.8223,-3.8292,-3.8245,-3.8266,-3.8238,-3.8293,-3.8431,-3.8235,-3.8234,-3.8273,-3.8579,-3.862,-3.8647,-3.8401,-3.8405,-3.8408,-3.8578,0,-3.8067,-3.8187,-3.8153,-3.8274,-3.8326,-3.8261,-3.8323,-3.8338,-3.833,-3.8373,-3.8364,-3.8414,-3.8346,-3.8359,-3.841,-3.8403,-3.8492,-3.839,-3.8457,-3.846,-3.8457,-3.8675,-3.8718,-3.8878,-3.86,-3.8603,-3.8606,0,-3.8276,-3.8306,-3.8432,-3.8436,-3.8457,-3.8513,-3.8548,-3.8589,-3.8605,-3.8595,-3.8619,-3.8581,-3.8651,-3.8568,-3.8665,-3.8597,-3.8622,-3.8623,-3.8628,-3.8635,-3.8543,-3.8691,-3.8928,-3.8954,-3.8639,-3.8637,-3.8634,0,-3.8439,-3.851,-3.8595,-3.8608,-3.8615,-3.8656,-3.8661,-3.8672,-3.8699,-3.8729,-3.8747,-3.8785,-3.8807,-3.8838,-3.8812,-3.8753,-3.8914,-3.8828,-3.891,-3.8911,-3.8949,-3.8947,-3.9197,-3.8961,-3.8961,-3.8961,-3.896,0,-3.8628,-3.8708,-3.8669,-3.8722,-3.881,-3.877,-3.8859,-3.8856,-3.8867,-3.8919,-3.8864,-3.8915,-3.8875,-3.8922,-3.8902,-3.8987,-3.8996,-3.8992,-3.8986,-3.8998,-3.8999,-3.9016,-3.9005,-3.8967,-3.8965,-3.8964,-3.8963,0,-3.8826,-3.8802,-3.8891,-3.889,-3.8892,-3.8957,-3.8957,-3.9006,-3.8993,-3.9059,-3.9073,-3.9053,-3.9106,-3.9082,-3.9137,-3.9123,-3.9233,-3.9211,-3.9228,-3.9223,-3.9307,-3.9301,-3.9578,-3.9614,-3.9353,-3.9356,-3.9358,0,-3.8949,-3.9009,-3.9015,-3.9045,-3.9054,-3.9103,-3.913,-3.9093,-3.9124,-3.9147,-3.9194,-3.9241,-3.9278,-3.9365,-3.9357,-3.9399,-3.9379,-3.9473,-3.9385,-3.9396,-3.9383,-3.9381,-3.9388,-3.9492,-3.9495,-3.9497,-3.9499,0,-3.9172,-3.9157,-3.9197,-3.9235,-3.9268,-3.9295,-3.9318,-3.9346,-3.931,-3.9348,-3.94,-3.9428,-3.9484,-3.9533,-3.957,-3.9576,-3.9533,-3.9527,-3.9548,-3.9563,-3.9571,-3.957,-3.9279,-3.9521,-3.9519,-3.9517,-3.9516,-3.9515,-3.9338,-3.9389,-3.9401,-3.9448,-3.9461,-3.9484,-3.953,-3.9523,-3.9566,-3.9608,-3.9584,-3.9646,-3.9661,-3.9706,-3.9718,-3.9767,-3.973,-3.9761,-3.9769,-3.9778,-3.979,-3.9561,-3.9773,-3.9773,-3.9772,-3.9772,-3.9771,0,-3.9559,-3.9564,-3.9607,-3.9641,-3.9678,-3.9632,-3.9655,-3.969,-3.9745,-3.9762,-3.9799,-3.986,-3.9907,-3.9902,-3.9946,-3.9986,-3.9968,-3.9999,-3.9997,-4.0,-3.9819,-3.9798,-4.0013,-4.0013,-4.0013,-4.0013,-4.0013,-4.0013,-3.9679,-3.9764,-3.9751,-3.9842,-3.9845,-3.9905,-3.9923,-3.9944,-3.9957,-4.0028,-4.0066,-4.0062,-4.0071,-4.0115,-4.0156,-4.0154,-4.0173,-4.0213,-4.0203,-4.0036,-4.0012,-3.9989,-3.9969,-4.0217,-4.0217,-4.0379,-4.0381,-4.0382]},{"header":{"parameterUnit":"m.s-1","parameterCategory":1,"la1":30.2991,"la2":30.254,"lo1":-89.0895,"lo2":-89.0444,"dy":0.0017,"dx":0.0017,"nx":28,"ny":28,"refTime":"2023-11-12T09:00:00:Z","depth":0,"parameterNumber":3,"parameterNumberName":"V-component_of_WINDS"},"data":[0,0,0,0,0,0,0,0,0,0,0,0,0,0,0,0,0,0,0,0,0,0,0,0,0,0,0,0,0,0,0,0,0,0,0,0,0,0,0,0,0,0,0,0,0,0,0,0,0,0,0,0,0,0,0,0,0,0,-3.7658,-3.7658,0,-3.7647,-3.7647,-3.7647,-3.7592,-3.7591,-3.759,-3.7588,-3.7578,-3.7579,-3.758,0,0,0,0,0,0,0,0,0,0,0,0,0,-3.7632,-3.7633,-3.7658,-3.7658,-3.7658,-3.7647,-3.7647,-3.7647,-3.7593,-3.7591,-3.7589,-3.7588,-3.7578,-3.7579,-3.758,0,0,0,0,0,0,0,0,0,0,0,0,0,-3.7634,-3.7633,-3.7658,-3.7629,-3.7627,-3.7647,-3.7647,-3.7647,-3.7593,-3.7591,-3.7589,-3.7587,-3.7578,-3.7579,-3.758,-3.7628,0,0,-3.7585,-3.7585,0,0,0,0,0,0,0,0,-3.7634,-3.7636,-3.7634,-3.7631,-3.7628,-3.7619,-3.7634,-3.7641,-3.7593,-3.7606,-3.7588,-3.7586,-3.7594,-3.7594,-3.7596,-3.7628,-3.7627,-3.7585,-3.7586,-3.7586,-3.7587,0,0,0,0,0,0,0,-3.7634,-3.7636,-3.7654,-3.7634,-3.7631,-3.7617,-3.7615,-3.7635,-3.7611,-3.7605,-3.76,-3.76,-3.7592,-3.7595,-3.7595,-3.7627,-3.7585,-3.7586,-3.7587,-3.7587,-3.7698,-3.77,0,0,0,0,0,0,-3.7638,-3.7636,-3.7654,-3.7654,-3.7627,-3.7619,-3.7617,-3.7624,-3.761,-3.7606,-3.7602,-3.7597,-3.7593,-3.7594,-3.7595,-3.7649,-3.7586,-3.7588,-3.7588,-3.7696,-3.7698,-3.77,0,0,0,0,0,0,-3.7638,-3.764,-3.7655,-3.7644,-3.7644,-3.7622,-3.763,-3.7625,-3.7628,-3.7608,-3.7604,-3.7609,-3.7592,-3.7593,-3.762,-3.7648,-3.7588,-3.759,-3.7693,-3.7696,-3.7699,-3.776,0,0,0,0,0,0,-3.7637,-3.764,-3.7658,-3.7644,-3.7645,-3.7681,-3.7632,-3.7626,-3.763,-3.7625,-3.7614,-3.761,-3.759,-3.7618,-3.7622,-3.7649,-3.7591,-3.7691,-3.7695,-3.7698,-3.7755,-3.7765,-3.7773,0,0,0,0,0,-3.7636,-3.7676,-3.766,-3.7662,-3.7667,-3.7682,-3.7683,-3.7658,-3.7633,-3.7651,-3.7638,-3.7611,-3.7645,-3.7622,-3.7625,-3.7653,-3.7689,-3.7694,-3.7698,-3.7752,-3.7763,-3.7773,0,0,0,0,0,0,-3.7694,-3.7674,-3.7655,-3.7692,-3.7689,-3.7673,-3.7695,-3.7672,-3.7676,-3.7671,-3.7641,-3.7639,-3.7671,-3.7665,-3.7639,-3.7699,-3.7662,-3.7668,-3.7702,-3.7712,-3.7721,-3.7722,-3.7592,0,0,0,0,0,-3.7711,-3.7725,-3.7707,-3.774,-3.774,-3.7718,-3.7724,-3.7705,-3.7701,-3.77,-3.7689,-3.7687,-3.7697,-3.7704,-3.7713,-3.7754,-3.7751,-3.7776,-3.7784,-3.7792,-3.7797,-3.7818,-3.7829,-3.7716,-3.7716,-3.7716,0,0,-3.7747,-3.7737,-3.7748,-3.7752,-3.7748,-3.7763,-3.7717,-3.7735,-3.7746,-3.7703,-3.7728,-3.772,-3.7716,-3.775,-3.7765,-3.7746,-3.7827,-3.7798,-3.7804,-3.7805,-3.7824,-3.7835,-3.7844,-3.7719,-3.7718,-3.7718,0,0,-3.7819,-3.7813,-3.784,-3.7837,-3.7831,-3.7816,-3.7823,-3.781,-3.7803,-3.7828,-3.7796,-3.7808,-3.7826,-3.7824,-3.7826,-3.7897,-3.7871,-3.79,-3.7946,-3.7967,-3.7976,-3.7984,-3.8009,-3.8018,-3.7905,-3.7905,-3.7906,0,-3.7863,-3.7884,-3.7857,-3.7877,-3.788,-3.7841,-3.7869,-3.7867,-3.7864,-3.7867,-3.7846,-3.7867,-3.7862,-3.7895,-3.7913,-3.7915,-3.7922,-3.7901,-3.7977,-3.7984,-3.7991,-3.8015,-3.8024,-3.7909,-3.7909,-3.7908,-3.7908,0,-3.7939,-3.7955,-3.7977,-3.7975,-3.7981,-3.8004,-3.7981,-3.799,-3.7971,-3.7958,-3.7984,-3.7975,-3.7981,-3.7988,-3.797,-3.8019,-3.8007,-3.7982,-3.7944,-3.8006,-3.8027,-3.8036,-3.7914,-3.7913,-3.7912,-3.7911,0,0,-3.8048,-3.803,-3.8039,-3.8037,-3.8028,-3.8039,-3.8061,-3.8066,-3.8074,-3.8074,-3.8091,-3.8108,-3.8084,-3.8086,-3.8067,-3.8085,-3.8142,-3.8058,-3.8057,-3.8073,-3.8195,-3.8214,-3.8225,-3.8125,-3.8127,-3.8128,-3.8196,0,-3.8116,-3.8152,-3.8128,-3.8168,-3.8182,-3.8145,-3.8164,-3.8161,-3.8149,-3.8159,-3.8147,-3.8158,-3.8126,-3.8127,-3.8144,-3.8131,-3.8166,-3.8126,-3.8141,-3.8142,-3.8143,-3.8236,-3.8257,-3.8321,-3.8204,-3.8205,-3.8206,0,-3.8201,-3.8204,-3.8245,-3.8232,-3.8237,-3.8255,-3.8257,-3.8267,-3.8262,-3.8253,-3.8255,-3.8231,-3.8252,-3.8215,-3.8243,-3.8217,-3.8222,-3.8216,-3.8218,-3.8219,-3.8178,-3.8239,-3.834,-3.835,-3.8219,-3.8218,-3.8217,0,-3.8275,-3.8289,-3.8316,-3.8316,-3.8302,-3.8315,-3.831,-3.8303,-3.8307,-3.831,-3.8313,-3.8318,-3.8321,-3.8325,-3.8304,-3.8279,-3.8335,-3.8296,-3.8328,-3.8328,-3.8341,-3.834,-3.8444,-3.8345,-3.8344,-3.8344,-3.8344,0,-3.8354,-3.8381,-3.8349,-3.8365,-3.8394,-3.8366,-3.8395,-3.8386,-3.8381,-3.8395,-3.8363,-3.8377,-3.8348,-3.8359,-3.8343,-3.8368,-3.837,-3.8363,-3.8358,-3.8365,-3.8366,-3.8368,-3.8363,-3.8347,-3.8346,-3.8346,-3.8345,0,-3.8442,-3.8422,-3.8448,-3.8433,-3.8429,-3.8451,-3.8438,-3.8452,-3.8439,-3.8457,-3.8459,-3.8438,-3.8449,-3.8429,-3.8437,-3.8426,-3.8462,-3.8451,-3.8464,-3.846,-3.8493,-3.849,-3.8601,-3.8614,-3.8507,-3.8508,-3.8508,0,-3.8494,-3.8513,-3.85,-3.8506,-3.8503,-3.8515,-3.8519,-3.8493,-3.8498,-3.8494,-3.8509,-3.8518,-3.8523,-3.8543,-3.8528,-3.8535,-3.8523,-3.8562,-3.8524,-3.8531,-3.8523,-3.8522,-3.8524,-3.8569,-3.8571,-3.8572,-3.8573,0,-3.8587,-3.8576,-3.8583,-3.8587,-3.8593,-3.8595,-3.8595,-3.8602,-3.8574,-3.8582,-3.8593,-3.8597,-3.8606,-3.8615,-3.8618,-3.8613,-3.8588,-3.8585,-3.8592,-3.86,-3.8606,-3.8603,-3.8485,-3.8582,-3.8581,-3.8581,-3.858,-3.858,-3.8658,-3.8674,-3.8666,-3.8675,-3.8672,-3.8673,-3.8685,-3.8673,-3.8681,-3.8686,-3.867,-3.8685,-3.8679,-3.868,-3.8678,-3.8689,-3.8672,-3.8683,-3.8686,-3.8689,-3.8694,-3.8605,-3.869,-3.8689,-3.8689,-3.8689,-3.8689,0,-3.875,-3.8743,-3.8752,-3.8752,-3.8759,-3.8735,-3.8733,-3.8741,-3.8754,-3.8751,-3.8756,-3.8769,-3.8777,-3.8764,-3.877,-3.8781,-3.877,-3.8784,-3.8783,-3.8782,-3.8709,-3.8702,-3.8793,-3.8793,-3.8793,-3.8793,-3.8793,-3.8792,-3.8798,-3.8823,-3.8811,-3.8834,-3.8827,-3.884,-3.8842,-3.8842,-3.8839,-3.8854,-3.8861,-3.8851,-3.8844,-3.8849,-3.8856,-3.8852,-3.8855,-3.8873,-3.8865,-3.8797,-3.8787,-3.8777,-3.877,-3.8874,-3.8874,-3.8937,-3.8937,-3.8938]}]]